Time,TemperatureF,DewpointF,PressureIn,WindDirection,WindDirectionDegrees,WindSpeedMPH,WindSpeedGustMPH,Humidity,HourlyPrecipIn,Conditions,Clouds,dailyrainin,SoftwareType,DateUTC
2013-02-09 00:00:00,31.9,23.9,30.24,SW,236,3.0,8.0,72,0.00,,,0.00,Wunderground v.1.15,2013-02-09 05:00:00,
2013-02-09 00:05:00,32.1,24.1,30.24,SW,224,4.0,8.0,72,0.00,,,0.00,Wunderground v.1.15,2013-02-09 05:05:00,
2013-02-09 00:10:00,31.9,23.9,30.24,SW,230,5.0,5.0,72,0.00,,,0.00,Wunderground v.1.15,2013-02-09 05:10:00,
2013-02-09 00:15:00,31.9,24.2,30.24,West,267,3.0,5.0,73,0.00,,,0.00,Wunderground v.1.15,2013-02-09 05:15:00,
2013-02-09 00:25:00,31.8,23.8,30.24,West,259,2.0,5.0,72,0.00,,,0.00,Wunderground v.1.15,2013-02-09 05:25:00,
2013-02-09 00:30:00,31.6,23.6,30.24,WSW,239,2.0,5.0,72,0.00,,,0.00,Wunderground v.1.15,2013-02-09 05:30:00,
2013-02-09 00:40:00,31.5,23.5,30.24,West,266,2.0,2.0,72,0.00,,,0.00,Wunderground v.1.15,2013-02-09 05:40:00,
2013-02-09 00:45:00,31.3,23.0,30.24,North,355,2.0,2.0,71,0.00,,,0.00,Wunderground v.1.15,2013-02-09 05:45:00,
2013-02-09 00:50:00,31.3,23.0,30.24,NW,314,2.0,2.0,71,0.00,,,0.00,Wunderground v.1.15,2013-02-09 05:50:00,
2013-02-09 01:00:00,31.2,22.9,30.24,SSW,210,2.0,2.0,71,0.00,,,0.00,Wunderground v.1.15,2013-02-09 06:00:00,
2013-02-09 01:10:00,31.2,22.9,30.25,WSW,252,3.0,3.0,71,0.00,,,0.00,Wunderground v.1.15,2013-02-09 06:10:00,
2013-02-09 01:15:00,31.2,22.9,30.25,West,259,1.0,3.0,71,0.00,,,0.00,Wunderground v.1.15,2013-02-09 06:15:00,
2013-02-09 01:20:00,31.0,23.0,30.25,West,264,1.0,6.0,72,0.00,,,0.00,Wunderground v.1.15,2013-02-09 06:20:00,
2013-02-09 01:30:00,31.0,22.7,30.24,WSW,239,4.0,9.0,71,0.00,,,0.00,Wunderground v.1.15,2013-02-09 06:30:00,
2013-02-09 01:40:00,31.0,22.7,30.25,SW,226,3.0,4.0,71,0.00,,,0.00,Wunderground v.1.15,2013-02-09 06:40:00,
2013-02-09 01:50:00,30.9,22.6,30.25,WSW,248,4.0,4.0,71,0.00,,,0.00,Wunderground v.1.15,2013-02-09 06:50:00,
2013-02-09 02:00:00,30.7,22.4,30.25,WSW,252,3.0,3.0,71,0.00,,,0.00,Wunderground v.1.15,2013-02-09 07:00:00,
2013-02-09 02:10:00,30.6,22.6,30.25,West,277,3.0,3.0,72,0.00,,,0.00,Wunderground v.1.15,2013-02-09 07:10:00,
2013-02-09 02:15:00,30.6,22.3,30.25,WSW,246,2.0,3.0,71,0.00,,,0.00,Wunderground v.1.15,2013-02-09 07:15:00,
2013-02-09 02:25:00,30.4,22.4,30.25,SW,233,2.0,2.0,72,0.00,,,0.00,Wunderground v.1.15,2013-02-09 07:25:00,
2013-02-09 02:30:00,30.4,22.4,30.25,WSW,258,3.0,8.0,72,0.00,,,0.00,Wunderground v.1.15,2013-02-09 07:30:00,
2013-02-09 02:40:00,30.4,22.4,30.25,WNW,303,3.0,4.0,72,0.00,,,0.00,Wunderground v.1.15,2013-02-09 07:40:00,
2013-02-09 02:45:00,30.3,22.0,30.25,WSW,254,4.0,4.0,71,0.00,,,0.00,Wunderground v.1.15,2013-02-09 07:45:00,
2013-02-09 02:50:00,30.1,21.8,30.25,West,276,5.0,10.0,71,0.00,,,0.00,Wunderground v.1.15,2013-02-09 07:50:00,
2013-02-09 03:00:00,29.8,21.5,30.25,SW,234,5.0,8.0,71,0.00,,,0.00,Wunderground v.1.15,2013-02-09 08:00:00,
2013-02-09 03:05:00,29.7,21.1,30.25,West,281,4.0,8.0,70,0.00,,,0.00,Wunderground v.1.15,2013-02-09 08:05:00,
2013-02-09 03:10:00,29.7,21.1,30.25,WSW,246,6.0,6.0,70,0.00,,,0.00,Wunderground v.1.15,2013-02-09 08:10:00,
2013-02-09 03:20:00,29.5,20.9,30.26,SW,228,4.0,8.0,70,0.00,,,0.00,Wunderground v.1.15,2013-02-09 08:20:00,
2013-02-09 03:25:00,29.5,20.9,30.26,WSW,256,3.0,8.0,70,0.00,,,0.00,Wunderground v.1.15,2013-02-09 08:25:00,
2013-02-09 03:35:00,29.4,20.5,30.26,WSW,252,2.0,5.0,69,0.00,,,0.00,Wunderground v.1.15,2013-02-09 08:35:00,
2013-02-09 03:40:00,29.3,20.7,30.26,West,274,2.0,4.0,70,0.00,,,0.00,Wunderground v.1.15,2013-02-09 08:40:00,
2013-02-09 03:45:00,29.1,20.5,30.26,West,261,2.0,4.0,70,0.00,,,0.00,Wunderground v.1.15,2013-02-09 08:45:00,
2013-02-09 03:55:00,29.1,20.5,30.26,WSW,238,2.0,5.0,70,0.00,,,0.00,Wunderground v.1.15,2013-02-09 08:55:00,
2013-02-09 04:00:00,29.1,20.5,30.26,WSW,253,4.0,4.0,70,0.00,,,0.00,Wunderground v.1.15,2013-02-09 09:00:00,
2013-02-09 04:05:00,29.0,20.4,30.27,WSW,247,4.0,5.0,70,0.00,,,0.00,Wunderground v.1.15,2013-02-09 09:05:00,
2013-02-09 04:10:00,29.0,20.4,30.26,WSW,247,3.0,3.0,70,0.00,,,0.00,Wunderground v.1.15,2013-02-09 09:10:00,
2013-02-09 04:20:00,29.0,20.4,30.27,West,261,3.0,3.0,70,0.00,,,0.00,Wunderground v.1.15,2013-02-09 09:20:00,
2013-02-09 04:25:00,28.8,20.2,30.27,WSW,243,3.0,3.0,70,0.00,,,0.00,Wunderground v.1.15,2013-02-09 09:25:00,
2013-02-09 04:35:00,28.5,20.3,30.27,West,261,2.0,2.0,71,0.00,,,0.00,Wunderground v.1.15,2013-02-09 09:35:00,
2013-02-09 04:40:00,28.5,20.3,30.27,WSW,249,1.0,1.0,71,0.00,,,0.00,Wunderground v.1.15,2013-02-09 09:40:00,
2013-02-09 04:45:00,28.5,20.3,30.27,West,266,1.0,1.0,71,0.00,,,0.00,Wunderground v.1.15,2013-02-09 09:45:00,
2013-02-09 04:50:00,28.4,20.2,30.27,West,270,1.0,3.0,71,0.00,,,0.00,Wunderground v.1.15,2013-02-09 09:50:00,
2013-02-09 04:55:00,28.4,20.2,30.28,SW,229,1.0,4.0,71,0.00,,,0.00,Wunderground v.1.15,2013-02-09 09:55:00,
2013-02-09 05:00:00,28.2,20.0,30.28,SW,229,2.0,2.0,71,0.00,,,0.00,Wunderground v.1.15,2013-02-09 10:00:00,
2013-02-09 05:10:00,28.1,20.2,30.28,WSW,242,2.0,2.0,72,0.00,,,0.00,Wunderground v.1.15,2013-02-09 10:10:00,
2013-02-09 05:15:00,27.9,20.0,30.28,SW,233,2.0,2.0,72,0.00,,,0.00,Wunderground v.1.15,2013-02-09 10:15:00,
2013-02-09 05:25:00,27.5,20.0,30.29,SW,223,1.0,3.0,73,0.00,,,0.00,Wunderground v.1.15,2013-02-09 10:25:00,
2013-02-09 05:30:00,27.5,20.0,30.29,SW,230,1.0,1.0,73,0.00,,,0.00,Wunderground v.1.15,2013-02-09 10:30:00,
2013-02-09 05:35:00,27.2,20.0,30.29,SW,230,0.0,1.0,74,0.00,,,0.00,Wunderground v.1.15,2013-02-09 10:35:00,
2013-02-09 05:45:00,27.2,20.3,30.29,SW,227,1.0,1.0,75,0.00,,,0.00,Wunderground v.1.15,2013-02-09 10:45:00,
2013-02-09 05:50:00,27.2,20.3,30.30,SSW,205,1.0,1.0,75,0.00,,,0.00,Wunderground v.1.15,2013-02-09 10:50:00,
2013-02-09 06:00:00,26.6,20.1,30.29,SSW,201,1.0,6.0,76,0.00,,,0.00,Wunderground v.1.15,2013-02-09 11:00:00,
2013-02-09 06:05:00,26.6,20.1,30.30,SW,215,1.0,6.0,76,0.00,,,0.00,Wunderground v.1.15,2013-02-09 11:05:00,
2013-02-09 06:10:00,26.6,19.7,30.30,SW,225,3.0,4.0,75,0.00,,,0.00,Wunderground v.1.15,2013-02-09 11:10:00,
2013-02-09 06:20:00,26.9,19.7,30.31,SSW,211,3.0,3.0,74,0.00,,,0.00,Wunderground v.1.15,2013-02-09 11:20:00,
2013-02-09 06:30:00,26.7,19.5,30.31,SW,228,5.0,5.0,74,0.00,,,0.00,Wunderground v.1.15,2013-02-09 11:30:00,
2013-02-09 06:40:00,26.6,19.4,30.31,SW,232,5.0,6.0,74,0.00,,,0.00,Wunderground v.1.15,2013-02-09 11:40:00,
2013-02-09 06:45:00,26.4,19.2,30.31,WSW,248,5.0,7.0,74,0.00,,,0.00,Wunderground v.1.15,2013-02-09 11:45:00,
2013-02-09 06:55:00,26.4,19.2,30.32,SW,227,7.0,8.0,74,0.00,,,0.00,Wunderground v.1.15,2013-02-09 11:55:00,
2013-02-09 07:00:00,26.4,19.5,30.32,SW,227,7.0,7.0,75,0.00,,,0.00,Wunderground v.1.15,2013-02-09 12:00:00,
2013-02-09 07:10:00,26.6,19.4,30.33,SW,229,6.0,9.0,74,0.00,,,0.00,Wunderground v.1.15,2013-02-09 12:10:00,
2013-02-09 07:15:00,26.6,19.4,30.33,SW,233,7.0,9.0,74,0.00,,,0.00,Wunderground v.1.15,2013-02-09 12:15:00,
2013-02-09 07:20:00,26.6,19.4,30.33,SW,224,6.0,6.0,74,0.00,,,0.00,Wunderground v.1.15,2013-02-09 12:20:00,
2013-02-09 07:30:00,26.4,19.2,30.33,WSW,238,6.0,6.0,74,0.00,,,0.00,Wunderground v.1.15,2013-02-09 12:30:00,
2013-02-09 07:35:00,26.3,19.5,30.34,SSW,203,4.0,6.0,75,0.00,,,0.00,Wunderground v.1.15,2013-02-09 12:35:00,
2013-02-09 07:40:00,26.1,19.3,30.34,SW,223,2.0,4.0,75,0.00,,,0.00,Wunderground v.1.15,2013-02-09 12:40:00,
2013-02-09 07:50:00,26.0,19.5,30.34,SW,214,2.0,2.0,76,0.00,,,0.00,Wunderground v.1.15,2013-02-09 12:50:00,
2013-02-09 08:00:00,25.8,19.3,30.34,SSW,213,1.0,4.0,76,0.00,,,0.00,Wunderground v.1.15,2013-02-09 13:00:00,
2013-02-09 08:10:00,26.6,20.1,30.34,WSW,240,3.0,4.0,76,0.00,,,0.00,Wunderground v.1.15,2013-02-09 13:10:00,
2013-02-09 08:20:00,27.3,20.4,30.35,SW,226,4.0,4.0,75,0.00,,,0.00,Wunderground v.1.15,2013-02-09 13:20:00,
2013-02-09 08:30:00,27.8,20.6,30.35,South,189,3.0,6.0,74,0.00,,,0.00,Wunderground v.1.15,2013-02-09 13:30:00,
2013-02-09 08:40:00,28.1,20.6,30.35,WSW,238,6.0,9.0,73,0.00,,,0.00,Wunderground v.1.15,2013-02-09 13:40:00,
2013-02-09 08:45:00,28.2,20.7,30.35,SW,233,7.0,9.0,73,0.00,,,0.00,Wunderground v.1.15,2013-02-09 13:45:00,
2013-02-09 08:50:00,28.2,20.0,30.35,SW,236,7.0,7.0,71,0.00,,,0.00,Wunderground v.1.15,2013-02-09 13:50:00,
2013-02-09 09:00:00,28.5,20.6,30.36,SW,232,7.0,7.0,72,0.00,,,0.00,Wunderground v.1.15,2013-02-09 14:00:00,
2013-02-09 09:10:00,29.0,20.4,30.35,SW,215,5.0,6.0,70,0.00,,,0.00,Wunderground v.1.15,2013-02-09 14:10:00,
2013-02-09 09:20:00,29.5,20.2,30.36,SW,222,6.0,6.0,68,0.00,,,0.00,Wunderground v.1.15,2013-02-09 14:20:00,
2013-02-09 09:25:00,29.8,20.5,30.36,WSW,246,5.0,8.0,68,0.00,,,0.00,Wunderground v.1.15,2013-02-09 14:25:00,
2013-02-09 09:30:00,30.1,20.1,30.36,SW,227,5.0,6.0,66,0.00,,,0.00,Wunderground v.1.15,2013-02-09 14:30:00,
2013-02-09 09:35:00,30.3,20.3,30.37,WSW,257,5.0,6.0,66,0.00,,,0.00,Wunderground v.1.15,2013-02-09 14:35:00,
2013-02-09 09:40:00,30.7,20.7,30.37,SW,236,4.0,9.0,66,0.00,,,0.00,Wunderground v.1.15,2013-02-09 14:40:00,
2013-02-09 09:50:00,31.5,20.7,30.37,SW,225,5.0,5.0,64,0.00,,,0.00,Wunderground v.1.15,2013-02-09 14:50:00,
2013-02-09 10:00:00,31.8,20.3,30.36,SW,233,3.0,5.0,62,0.00,,,0.00,Wunderground v.1.15,2013-02-09 15:00:00,
2013-02-09 10:05:00,32.1,20.5,30.37,SW,235,3.0,5.0,62,0.00,,,0.00,Wunderground v.1.15,2013-02-09 15:05:00,
2013-02-09 10:10:00,32.4,20.0,30.37,SSW,198,3.0,3.0,60,0.00,,,0.00,Wunderground v.1.15,2013-02-09 15:10:00,
2013-02-09 10:15:00,32.8,20.0,30.37,SW,227,2.0,4.0,59,0.00,,,0.00,Wunderground v.1.15,2013-02-09 15:15:00,
2013-02-09 10:20:00,33.1,19.9,30.37,SSW,210,2.0,2.0,58,0.00,,,0.00,Wunderground v.1.15,2013-02-09 15:20:00,
2013-02-09 10:30:00,33.5,19.9,30.37,SSW,201,2.0,2.0,57,0.00,,,0.00,Wunderground v.1.15,2013-02-09 15:30:00,
2013-02-09 10:35:00,33.8,19.7,30.37,SW,219,2.0,2.0,56,0.00,,,0.00,Wunderground v.1.15,2013-02-09 15:35:00,
2013-02-09 10:40:00,34.1,19.6,30.37,WSW,238,2.0,3.0,55,0.00,,,0.00,Wunderground v.1.15,2013-02-09 15:40:00,
2013-02-09 10:45:00,34.4,20.3,30.37,SW,215,2.0,5.0,56,0.00,,,0.00,Wunderground v.1.15,2013-02-09 15:45:00,
2013-02-09 10:50:00,34.6,21.3,30.37,SSW,208,2.0,2.0,58,0.00,,,0.00,Wunderground v.1.15,2013-02-09 15:50:00,
2013-02-09 11:00:00,35.2,20.2,30.37,SSW,193,1.0,4.0,54,0.00,,,0.00,Wunderground v.1.15,2013-02-09 16:00:00,
2013-02-09 11:10:00,35.8,21.6,30.37,SW,235,1.0,1.0,56,0.00,,,0.00,Wunderground v.1.15,2013-02-09 16:10:00,
2013-02-09 11:15:00,35.9,20.0,30.37,SW,223,1.0,2.0,52,0.00,,,0.00,Wunderground v.1.15,2013-02-09 16:15:00,
2013-02-09 11:20:00,36.3,19.4,30.38,SSW,207,3.0,3.0,50,0.00,,,0.00,Wunderground v.1.15,2013-02-09 16:20:00,
2013-02-09 11:25:00,36.5,19.1,30.38,SSW,209,2.0,3.0,49,0.00,,,0.00,Wunderground v.1.15,2013-02-09 16:25:00,
2013-02-09 11:30:00,36.6,20.2,30.37,SSW,196,2.0,6.0,51,0.00,,,0.00,Wunderground v.1.15,2013-02-09 16:30:00,
2013-02-09 11:40:00,37.5,20.1,30.37,SSW,200,4.0,4.0,49,0.00,,,0.00,Wunderground v.1.15,2013-02-09 16:40:00,
2013-02-09 11:45:00,37.9,19.4,30.37,SW,228,4.0,4.0,47,0.00,,,0.00,Wunderground v.1.15,2013-02-09 16:45:00,
2013-02-09 11:50:00,38.2,20.7,30.37,SW,227,3.0,5.0,49,0.00,,,0.00,Wunderground v.1.15,2013-02-09 16:50:00,
2013-02-09 11:55:00,38.3,20.3,30.37,SSW,207,3.0,5.0,48,0.00,,,0.00,Wunderground v.1.15,2013-02-09 16:55:00,
2013-02-09 12:00:00,38.5,21.0,30.36,South,189,2.0,2.0,49,0.00,,,0.00,Wunderground v.1.15,2013-02-09 17:00:00,
2013-02-09 12:10:00,38.8,19.2,30.36,South,190,1.0,1.0,45,0.00,,,0.00,Wunderground v.1.15,2013-02-09 17:10:00,
2013-02-09 12:20:00,39.2,18.5,30.35,SW,217,0.0,0.0,43,0.00,,,0.00,Wunderground v.1.15,2013-02-09 17:20:00,
2013-02-09 12:25:00,39.6,18.9,30.35,SE,135,0.0,0.0,43,0.00,,,0.00,Wunderground v.1.15,2013-02-09 17:25:00,
2013-02-09 12:35:00,40.1,18.3,30.35,SW,223,0.0,3.0,41,0.00,,,0.00,Wunderground v.1.15,2013-02-09 17:35:00,
2013-02-09 12:40:00,40.3,19.5,30.35,WSW,244,0.0,0.0,43,0.00,,,0.00,Wunderground v.1.15,2013-02-09 17:40:00,
2013-02-09 12:45:00,40.5,19.7,30.34,West,279,1.0,2.0,43,0.00,,,0.00,Wunderground v.1.15,2013-02-09 17:45:00,
2013-02-09 12:55:00,40.9,20.6,30.35,SSW,213,1.0,3.0,44,0.00,,,0.00,Wunderground v.1.15,2013-02-09 17:55:00,
2013-02-09 13:05:00,41.6,22.3,30.34,South,173,1.0,3.0,46,0.00,,,0.00,Wunderground v.1.15,2013-02-09 18:05:00,
2013-02-09 13:15:00,42.1,22.3,30.34,South,189,1.0,1.0,45,0.00,,,0.00,Wunderground v.1.15,2013-02-09 18:15:00,
2013-02-09 13:25:00,42.2,20.7,30.34,WSW,242,1.0,2.0,42,0.00,,,0.00,Wunderground v.1.15,2013-02-09 18:25:00,
2013-02-09 13:30:00,42.6,21.6,30.34,SW,215,1.0,1.0,43,0.00,,,0.00,Wunderground v.1.15,2013-02-09 18:30:00,
2013-02-09 13:35:00,43.1,22.6,30.35,SSE,165,2.0,5.0,44,0.00,,,0.00,Wunderground v.1.15,2013-02-09 18:35:00,
2013-02-09 13:40:00,42.5,23.2,30.35,SE,141,3.0,3.0,46,0.00,,,0.00,Wunderground v.1.15,2013-02-09 18:40:00,
2013-02-09 13:50:00,43.5,22.5,30.34,South,170,2.0,6.0,43,0.00,,,0.00,Wunderground v.1.15,2013-02-09 18:50:00,
2013-02-09 13:55:00,43.6,24.2,30.34,SSW,200,2.0,6.0,46,0.00,,,0.00,Wunderground v.1.15,2013-02-09 18:55:00,
2013-02-09 14:00:00,43.6,22.5,30.34,SSW,209,2.0,2.0,43,0.00,,,0.00,Wunderground v.1.15,2013-02-09 19:00:00,
2013-02-09 14:05:00,43.6,22.5,30.34,South,191,2.0,2.0,43,0.00,,,0.00,Wunderground v.1.15,2013-02-09 19:05:00,
2013-02-09 14:10:00,43.9,22.8,30.34,South,182,2.0,3.0,43,0.00,,,0.00,Wunderground v.1.15,2013-02-09 19:10:00,
2013-02-09 14:15:00,43.9,22.8,30.34,SSW,202,2.0,3.0,43,0.00,,,0.00,Wunderground v.1.15,2013-02-09 19:15:00,
2013-02-09 14:20:00,44.1,21.9,30.34,South,180,2.0,2.0,41,0.00,,,0.00,Wunderground v.1.15,2013-02-09 19:20:00,
2013-02-09 14:30:00,44.5,21.6,30.34,South,182,1.0,1.0,40,0.00,,,0.00,Wunderground v.1.15,2013-02-09 19:30:00,
2013-02-09 14:40:00,45.4,23.0,30.34,SSW,194,1.0,5.0,41,0.00,,,0.00,Wunderground v.1.15,2013-02-09 19:40:00,
2013-02-09 14:45:00,45.2,21.7,30.34,SSE,165,2.0,5.0,39,0.00,,,0.00,Wunderground v.1.15,2013-02-09 19:45:00,
2013-02-09 14:50:00,45.5,22.5,30.34,SSW,196,1.0,1.0,40,0.00,,,0.00,Wunderground v.1.15,2013-02-09 19:50:00,
2013-02-09 15:00:00,45.7,21.5,30.34,SW,214,1.0,3.0,38,0.00,,,0.00,Wunderground v.1.15,2013-02-09 20:00:00,
2013-02-09 15:10:00,45.7,20.9,30.34,South,188,2.0,2.0,37,0.00,,,0.00,Wunderground v.1.15,2013-02-09 20:10:00,
2013-02-09 15:15:00,46.0,21.1,30.34,South,188,1.0,2.0,37,0.00,,,0.00,Wunderground v.1.15,2013-02-09 20:15:00,
2013-02-09 15:20:00,46.4,22.1,30.33,SSW,196,0.0,4.0,38,0.00,,,0.00,Wunderground v.1.15,2013-02-09 20:20:00,
2013-02-09 15:25:00,46.4,22.1,30.34,SSW,200,1.0,4.0,38,0.00,,,0.00,Wunderground v.1.15,2013-02-09 20:25:00,
2013-02-09 15:30:00,46.4,19.5,30.34,SSW,213,1.0,1.0,34,0.00,,,0.00,Wunderground v.1.15,2013-02-09 20:30:00,
2013-02-09 15:40:00,46.5,20.9,30.34,SSW,204,0.0,0.0,36,0.00,,,0.00,Wunderground v.1.15,2013-02-09 20:40:00,
2013-02-09 15:45:00,47.0,21.4,30.34,South,180,1.0,3.0,36,0.00,,,0.00,Wunderground v.1.15,2013-02-09 20:45:00,
2013-02-09 15:50:00,47.0,21.4,30.33,SSW,210,1.0,1.0,36,0.00,,,0.00,Wunderground v.1.15,2013-02-09 20:50:00,
2013-02-09 16:00:00,47.3,18.9,30.33,SSW,209,0.0,0.0,32,0.00,,,0.00,Wunderground v.1.15,2013-02-09 21:00:00,
2013-02-09 16:05:00,47.4,19.0,30.33,SSW,209,0.0,0.0,32,0.00,,,0.00,Wunderground v.1.15,2013-02-09 21:05:00,
2013-02-09 16:10:00,47.4,19.7,30.34,SSW,209,0.0,0.0,33,0.00,,,0.00,Wunderground v.1.15,2013-02-09 21:10:00,
2013-02-09 16:20:00,47.1,19.4,30.34,South,182,1.0,1.0,33,0.00,,,0.00,Wunderground v.1.15,2013-02-09 21:20:00,
2013-02-09 16:25:00,47.1,18.7,30.34,South,182,0.0,1.0,32,0.00,,,0.00,Wunderground v.1.15,2013-02-09 21:25:00,
2013-02-09 16:30:00,47.3,19.6,30.34,SSW,198,0.0,0.0,33,0.00,,,0.00,Wunderground v.1.15,2013-02-09 21:30:00,
2013-02-09 16:35:00,47.3,18.1,30.34,SSW,198,0.0,0.0,31,0.00,,,0.00,Wunderground v.1.15,2013-02-09 21:35:00,
2013-02-09 16:40:00,47.9,20.1,30.34,SSW,198,0.0,2.0,33,0.00,,,0.00,Wunderground v.1.15,2013-02-09 21:40:00,
2013-02-09 16:45:00,47.3,17.4,30.34,SSW,198,0.0,2.0,30,0.00,,,0.00,Wunderground v.1.15,2013-02-09 21:45:00,
2013-02-09 16:50:00,47.0,18.6,30.34,SSW,198,0.0,0.0,32,0.00,,,0.00,Wunderground v.1.15,2013-02-09 21:50:00,
2013-02-09 16:55:00,47.0,18.6,30.34,SSW,198,0.0,0.0,32,0.00,,,0.00,Wunderground v.1.15,2013-02-09 21:55:00,
2013-02-09 17:00:00,47.1,17.2,30.34,SSW,198,0.0,0.0,30,0.00,,,0.00,Wunderground v.1.15,2013-02-09 22:00:00,
2013-02-09 17:10:00,47.3,18.1,30.33,SSW,198,0.0,1.0,31,0.00,,,0.00,Wunderground v.1.15,2013-02-09 22:10:00,
2013-02-09 17:15:00,46.7,17.6,30.33,SSW,198,0.0,1.0,31,0.00,,,0.00,Wunderground v.1.15,2013-02-09 22:15:00,
2013-02-09 17:20:00,46.0,17.0,30.34,SSW,198,0.0,0.0,31,0.00,,,0.00,Wunderground v.1.15,2013-02-09 22:20:00,
2013-02-09 17:30:00,44.9,17.5,30.33,SSW,198,0.0,0.0,33,0.00,,,0.00,Wunderground v.1.15,2013-02-09 22:30:00,
2013-02-09 17:35:00,44.5,18.5,30.34,SSW,198,0.0,0.0,35,0.00,,,0.00,Wunderground v.1.15,2013-02-09 22:35:00,
2013-02-09 17:40:00,44.1,20.1,30.34,SSW,198,0.0,0.0,38,0.00,,,0.00,Wunderground v.1.15,2013-02-09 22:40:00,
2013-02-09 17:50:00,42.8,20.7,30.34,SSW,198,0.0,0.0,41,0.00,,,0.00,Wunderground v.1.15,2013-02-09 22:50:00,
2013-02-09 18:00:00,40.6,19.8,30.34,SSW,198,0.0,0.0,43,0.00,,,0.00,Wunderground v.1.15,2013-02-09 23:00:00,
2013-02-09 18:10:00,38.3,20.8,30.34,SSW,198,0.0,0.0,49,0.00,,,0.00,Wunderground v.1.15,2013-02-09 23:10:00,
2013-02-09 18:15:00,37.3,21.3,30.34,SSW,198,0.0,0.0,52,0.00,,,0.00,Wunderground v.1.15,2013-02-09 23:15:00,
2013-02-09 18:20:00,36.9,20.9,30.34,SSW,198,0.0,0.0,52,0.00,,,0.00,Wunderground v.1.15,2013-02-09 23:20:00,
2013-02-09 18:30:00,35.6,21.0,30.34,SSW,198,0.0,0.0,55,0.00,,,0.00,Wunderground v.1.15,2013-02-09 23:30:00,
2013-02-09 18:35:00,35.2,21.1,30.34,SSW,198,0.0,0.0,56,0.00,,,0.00,Wunderground v.1.15,2013-02-09 23:35:00,
2013-02-09 18:40:00,34.7,21.0,30.34,SSW,198,0.0,0.0,57,0.00,,,0.00,Wunderground v.1.15,2013-02-09 23:40:00,
2013-02-09 18:50:00,34.1,21.3,30.34,SSW,198,0.0,0.0,59,0.00,,,0.00,Wunderground v.1.15,2013-02-09 23:50:00,
2013-02-09 18:55:00,33.7,21.7,30.35,SSW,198,0.0,0.0,61,0.00,,,0.00,Wunderground v.1.15,2013-02-09 23:55:00,
2013-02-09 19:00:00,33.4,21.8,30.35,SSW,198,0.0,0.0,62,0.00,,,0.00,Wunderground v.1.15,2013-02-10 00:00:00,
2013-02-09 19:10:00,32.2,21.4,30.35,SSW,198,0.0,0.0,64,0.00,,,0.00,Wunderground v.1.15,2013-02-10 00:10:00,
2013-02-09 19:15:00,31.8,22.1,30.35,SSW,198,0.0,0.0,67,0.00,,,0.00,Wunderground v.1.15,2013-02-10 00:15:00,
2013-02-09 19:20:00,31.5,21.8,30.35,SSW,198,0.0,0.0,67,0.00,,,0.00,Wunderground v.1.15,2013-02-10 00:20:00,
2013-02-09 19:30:00,31.0,22.0,30.36,SSW,198,0.0,0.0,69,0.00,,,0.00,Wunderground v.1.15,2013-02-10 00:30:00,
2013-02-09 19:40:00,30.6,22.3,30.35,SSW,198,0.0,0.0,71,0.00,,,0.00,Wunderground v.1.15,2013-02-10 00:40:00,
2013-02-09 19:45:00,30.4,22.1,30.36,SSW,198,0.0,0.0,71,0.00,,,0.00,Wunderground v.1.15,2013-02-10 00:45:00,
2013-02-09 19:55:00,30.1,22.2,30.36,SSW,198,0.0,0.0,72,0.00,,,0.00,Wunderground v.1.15,2013-02-10 00:55:00,
2013-02-09 20:00:00,29.8,22.5,30.35,SSW,198,0.0,0.0,74,0.00,,,0.00,Wunderground v.1.15,2013-02-10 01:00:00,
2013-02-09 20:10:00,29.4,23.1,30.35,SSW,198,0.0,0.0,77,0.00,,,0.00,Wunderground v.1.15,2013-02-10 01:10:00,
2013-02-09 20:15:00,29.1,22.8,30.35,SSW,198,0.0,0.0,77,0.00,,,0.00,Wunderground v.1.15,2013-02-10 01:15:00,
2013-02-09 20:20:00,29.1,22.8,30.35,SSW,198,0.0,0.0,77,0.00,,,0.00,Wunderground v.1.15,2013-02-10 01:20:00,
2013-02-09 20:25:00,29.1,22.8,30.35,SSW,198,0.0,0.0,77,0.00,,,0.00,Wunderground v.1.15,2013-02-10 01:25:00,
2013-02-09 20:30:00,29.0,23.0,30.35,SSW,198,0.0,0.0,78,0.00,,,0.00,Wunderground v.1.15,2013-02-10 01:30:00,
2013-02-09 20:35:00,28.8,23.1,30.35,SSW,198,0.0,0.0,79,0.00,,,0.00,Wunderground v.1.15,2013-02-10 01:35:00,
2013-02-09 20:40:00,28.7,23.0,30.35,SSW,198,0.0,0.0,79,0.00,,,0.00,Wunderground v.1.15,2013-02-10 01:40:00,
2013-02-09 20:50:00,27.9,22.5,30.35,SSW,198,0.0,0.0,80,0.00,,,0.00,Wunderground v.1.15,2013-02-10 01:50:00,
2013-02-09 20:55:00,27.8,22.4,30.36,SSW,198,0.0,0.0,80,0.00,,,0.00,Wunderground v.1.15,2013-02-10 01:55:00,
2013-02-09 21:00:00,27.6,22.2,30.35,SSW,198,0.0,0.0,80,0.00,,,0.00,Wunderground v.1.15,2013-02-10 02:00:00,
2013-02-09 21:10:00,27.5,22.1,30.35,SSW,198,0.0,0.0,80,0.00,,,0.00,Wunderground v.1.15,2013-02-10 02:10:00,
2013-02-09 21:15:00,27.2,21.8,30.35,SSW,198,0.0,0.0,80,0.00,,,0.00,Wunderground v.1.15,2013-02-10 02:15:00,
2013-02-09 21:25:00,26.9,21.8,30.36,SSW,198,0.0,0.0,81,0.00,,,0.00,Wunderground v.1.15,2013-02-10 02:25:00,
2013-02-09 21:30:00,27.0,22.2,30.36,SSW,198,0.0,0.0,82,0.00,,,0.00,Wunderground v.1.15,2013-02-10 02:30:00,
2013-02-09 21:35:00,27.0,22.2,30.35,SSW,198,0.0,0.0,82,0.00,,,0.00,Wunderground v.1.15,2013-02-10 02:35:00,
2013-02-09 21:40:00,27.2,22.1,30.35,SSW,198,0.0,0.0,81,0.00,,,0.00,Wunderground v.1.15,2013-02-10 02:40:00,
2013-02-09 21:50:00,27.6,21.9,30.35,SSW,198,0.0,0.0,79,0.00,,,0.00,Wunderground v.1.15,2013-02-10 02:50:00,
2013-02-09 21:55:00,27.6,21.6,30.35,SSW,198,0.0,0.0,78,0.00,,,0.00,Wunderground v.1.15,2013-02-10 02:55:00,
2013-02-09 22:00:00,27.3,21.3,30.35,SSW,198,0.0,0.0,78,0.00,,,0.00,Wunderground v.1.15,2013-02-10 03:00:00,
2013-02-09 22:10:00,27.2,21.2,30.35,SSW,198,0.0,0.0,78,0.00,,,0.00,Wunderground v.1.15,2013-02-10 03:10:00,
2013-02-09 22:15:00,27.0,21.1,30.35,SSW,198,0.0,0.0,78,0.00,,,0.00,Wunderground v.1.15,2013-02-10 03:15:00,
2013-02-09 22:20:00,26.7,21.1,30.35,SSW,198,0.0,0.0,79,0.00,,,0.00,Wunderground v.1.15,2013-02-10 03:20:00,
2013-02-09 22:30:00,26.4,21.1,30.35,SSW,198,0.0,0.0,80,0.00,,,0.00,Wunderground v.1.15,2013-02-10 03:30:00,
2013-02-09 22:35:00,26.4,21.1,30.35,SSW,198,0.0,0.0,80,0.00,,,0.00,Wunderground v.1.15,2013-02-10 03:35:00,
2013-02-09 22:45:00,26.1,20.8,30.35,SSW,198,0.0,0.0,80,0.00,,,0.00,Wunderground v.1.15,2013-02-10 03:45:00,
2013-02-09 22:55:00,25.7,20.7,30.34,SSW,198,0.0,0.0,81,0.00,,,0.00,Wunderground v.1.15,2013-02-10 03:55:00,
2013-02-09 23:05:00,25.4,21.0,30.34,SSW,198,0.0,0.0,83,0.00,,,0.00,Wunderground v.1.15,2013-02-10 04:05:00,
2013-02-09 23:10:00,25.4,20.7,30.35,SSW,198,0.0,0.0,82,0.00,,,0.00,Wunderground v.1.15,2013-02-10 04:10:00,
2013-02-09 23:15:00,25.4,20.7,30.35,SSW,198,0.0,0.0,82,0.00,,,0.00,Wunderground v.1.15,2013-02-10 04:15:00,
2013-02-09 23:25:00,25.0,20.6,30.35,SSW,198,0.0,0.0,83,0.00,,,0.00,Wunderground v.1.15,2013-02-10 04:25:00,
2013-02-09 23:30:00,24.8,20.7,30.35,SSW,198,0.0,0.0,84,0.00,,,0.00,Wunderground v.1.15,2013-02-10 04:30:00,
2013-02-09 23:40:00,25.1,20.9,30.35,SSW,198,0.0,0.0,84,0.00,,,0.00,Wunderground v.1.15,2013-02-10 04:40:00,
2013-02-09 23:50:00,24.8,20.7,30.35,SSW,198,0.0,0.0,84,0.00,,,0.00,Wunderground v.1.15,2013-02-10 04:50:00,